Weather History for KNEL - January, 2013

Change the Weather History Date:

Wednesday, January 16, 2013

  Actual Average Record
Temperature  
Mean Temperature 36 °F -  
Max Temperature 37 °F 36 °F - (-1)
Min Temperature 34 °F 26 °F - (-1)
Degree Days  
Heating Degree Days 28    
Moisture  
Dew Point 35 °F    
Average Humidity 97    
Maximum Humidity 100    
Minimum Humidity 92    
Precipitation  
Precipitation 0.00 in - - ()
Sea Level Pressure  
Sea Level Pressure 30.00 in    
Wind  
Wind Speed 4 mph (NNW)    
Max Wind Speed 9 mph    
Max Gust Speed 16 mph    
Averages and records for this station are not official NWS values.
T = Trace of Precipitation, MM = Missing Value Source: NWS Daily Summary

Daily Weather History Graph

Daily Weather History Graph

Search for Another Location

Airport or City:

Trip Planner

Search our weather history database for the weather conditions in past years. The results will help you decide how hot, cold, wet, or windy it might be!

Date:

Astronomy

Jan. 16, 2013 Rise Set
Actual Time 7:16 AM EST 4:57 PM EST
Civil Twilight 6:47 AM EST 5:27 PM EST
Nautical Twilight 6:13 AM EST 6:00 PM EST
Astronomical Twilight 5:41 AM EST 6:33 PM EST
Moon 9:52 AM EST (1/16) 10:46 PM EST (1/16)
Length of Visible Light 10h 40m
Length of Day
9h 41m
Waxing Crescent, 28% of the Moon is Illuminated
Jan 16
Waxing Crescent
Jan 18
First Quarter
Jan 26
Full
Feb 3
Last Quarter
Feb 10
New

Hourly Weather History & Observations

Time (EST) Temp. Windchill Dew Point Humidity Pressure Visibility Wind Dir Wind Speed Gust Speed Precip Events Conditions
12:19 AM 35.6 °F 32.8 °F 33.8 °F 93% 30.19 in - NNE 3.5 mph - N/A Rain Rain
1:00 AM 35.1 °F 32.2 °F 34.0 °F 96% 30.16 in - Variable 3.5 mph - N/A Rain Rain
1:58 AM 35.6 °F 29.9 °F 33.8 °F 93% 30.13 in - NE 6.9 mph - N/A Rain Light Rain
2:00 AM 35.1 °F 30.1 °F 33.1 °F 92% 30.13 in - NE 5.8 mph - N/A Rain Light Rain
2:24 AM 35.6 °F 31.7 °F 33.8 °F 93% 30.13 in - NE 4.6 mph - N/A Rain Rain
3:00 AM 35.1 °F 32.2 °F 34.0 °F 96% 30.12 in - NE 3.5 mph - N/A Rain Rain
4:00 AM 35.1 °F 31.0 °F 34.0 °F 96% 30.09 in - NNE 4.6 mph - N/A Rain Heavy Rain
5:00 AM 34.0 °F 28.8 °F 33.1 °F 96% 30.09 in - NNE 5.8 mph - N/A Rain Light Rain
6:00 AM 34.0 °F 29.8 °F 33.1 °F 96% 30.05 in - Variable 4.6 mph - N/A Rain Light Rain
7:00 AM 35.1 °F 32.2 °F 34.0 °F 96% 30.04 in - ENE 3.5 mph - N/A Rain Light Rain
8:00 AM 36.0 °F 32.1 °F 35.1 °F 97% 30.02 in - ENE 4.6 mph - N/A   Overcast
8:17 AM 35.6 °F 32.8 °F 35.6 °F 100% 30.01 in - ENE 3.5 mph - N/A   Overcast
10:00 AM 37.9 °F 35.5 °F 37.9 °F 100% 29.96 in - South 3.5 mph - N/A Rain Light Rain
11:00 AM 37.9 °F 35.5 °F 37.9 °F 100% 29.97 in - NW 3.5 mph - N/A Rain Light Rain
1:00 PM 37.9 °F - 37.9 °F 100% 29.87 in - Calm Calm - N/A   Overcast
2:00 PM 39.0 °F 34.8 °F 39.0 °F 100% 29.80 in - South 5.8 mph - N/A   Overcast
3:00 PM 37.0 °F 34.5 °F 37.0 °F 100% 29.89 in - Variable 3.5 mph 16.1 mph N/A   Overcast
4:00 PM 36.0 °F 32.1 °F 35.1 °F 97% 29.91 in - NNW 4.6 mph - N/A   Overcast
5:00 PM 36.0 °F 32.1 °F 36.0 °F 100% 29.92 in - West 4.6 mph - N/A   Overcast
6:00 PM 36.0 °F 32.1 °F 36.0 °F 100% 29.93 in - WNW 4.6 mph - N/A   Overcast
7:00 PM 37.0 °F 32.4 °F 36.0 °F 96% 29.94 in - West 5.8 mph - N/A   Overcast
7:23 PM 37.4 °F 33.8 °F 35.6 °F 93% 29.93 in - SW 4.6 mph - N/A   Overcast
8:00 PM 37.0 °F 32.4 °F 36.0 °F 96% 29.93 in - WSW 5.8 mph - N/A   Overcast
9:00 PM 37.0 °F 30.4 °F 36.0 °F 96% 29.95 in - West 9.2 mph - N/A   Overcast
10:00 PM 37.0 °F 32.4 °F 36.0 °F 96% 29.93 in - West 5.8 mph - N/A   Overcast
10:26 PM 37.4 °F 32.8 °F 35.6 °F 93% 29.94 in - West 5.8 mph - N/A   Mostly Cloudy
11:00 PM 37.0 °F 32.4 °F 36.0 °F 96% 29.95 in - West 5.8 mph - N/A   Mostly Cloudy